DATA DISCLAIMER:,,,
"Every reasonable effort has been made to assure the accuracy of these data.  However, Napa County RCD makes no warranty, representation, or guaranty ",,,
"as to the content, sequence, accuracy, timeliness, or completeness of any of the data provided herein.  Napa County RCD explicitly disclaims any ",,,
"representations and warranties, including, without limitation, the implied warranties of merchantability and fitness for a particular purpose.  Napa County ",,,
"RCD assumes no liability for any errors, omissions, or inaccuracies in the information provided regardless of how caused.  Napa County RCD also assumes ",,,
no liability for any decisions made or actions taken or not taken by the user of the data in reliance upon any information or data furnished hereunder.  ,,,
"Because the data provided are not warranted to be up-to-date, the user should check with RCD staff for updated information.",,,
,,,
"To assist the Napa County RCD technical team in the maintenance of the data, users are requested to provide, to the address shown below, information ",,,
"concerning any errors or discrepancies they find when using the data:  Napa County Resource Conservation District, (707) 252-4188, www.naparcd.org",,,
,,,
Date/Time (PST),GH (ft),Q (ft3/s),WT (C)
2/7/2014 16:15,0.29,0.06,9.6
2/7/2014 16:30,0.34,0.16,9.61
2/7/2014 16:45,0.35,0.21,9.64
2/7/2014 17:00,0.36,0.22,9.66
2/7/2014 17:15,0.37,0.26,9.7
2/7/2014 17:30,0.38,0.29,9.73
2/7/2014 17:45,0.39,0.34,9.76
2/7/2014 18:00,0.4,0.41,9.8
2/7/2014 18:15,0.41,0.46,9.83
2/7/2014 18:30,0.43,0.55,9.86
2/7/2014 18:45,0.44,0.61,9.89
2/7/2014 19:00,0.45,0.7,9.93
2/7/2014 19:15,0.46,0.77,9.96
2/7/2014 19:30,0.47,0.85,10
2/7/2014 19:45,0.48,0.92,10.02
2/7/2014 20:00,0.49,0.93,10.04
2/7/2014 20:15,0.49,0.97,10.06
2/7/2014 20:30,0.5,1.04,10.07
2/7/2014 20:45,0.5,1.03,10.08
2/7/2014 21:00,0.49,0.98,10.09
2/7/2014 21:15,0.48,0.9,10.1
2/7/2014 21:30,0.47,0.79,10.11
2/7/2014 21:45,0.45,0.68,10.12
2/7/2014 22:00,0.43,0.57,10.12
2/7/2014 22:15,0.41,0.47,10.13
2/7/2014 22:30,0.4,0.4,10.14
2/7/2014 22:45,0.4,0.37,10.15
2/7/2014 23:00,0.4,0.37,10.15
2/7/2014 23:15,0.4,0.39,10.16
2/7/2014 23:30,0.41,0.46,10.17
2/7/2014 23:45,0.43,0.55,10.17
2/8/2014 0:00,0.44,0.59,10.18
2/8/2014 0:15,0.44,0.59,10.19
2/8/2014 0:30,0.43,0.57,10.2
2/8/2014 0:45,0.43,0.55,10.21
2/8/2014 1:00,0.43,0.54,10.22
2/8/2014 1:15,0.43,0.54,10.23
2/8/2014 1:30,0.43,0.57,10.23
2/8/2014 1:45,0.43,0.58,10.24
2/8/2014 2:00,0.45,0.65,10.25
2/8/2014 2:15,0.94,9.34,10.27
2/8/2014 2:30,1.15,17.1,10.26
2/8/2014 2:45,1.13,16.3,10.24
2/8/2014 3:00,1.19,19,10.22
2/8/2014 3:15,1.2,19.2,10.19
2/8/2014 3:30,1.21,19.8,10.15
2/8/2014 3:45,1.22,20.5,10.11
2/8/2014 4:00,1.26,22.5,10.08
2/8/2014 4:15,1.35,27.4,10.04
2/8/2014 4:30,1.33,26,10
2/8/2014 4:45,1.35,27.2,9.97
2/8/2014 5:00,1.39,29.7,9.94
2/8/2014 5:15,1.41,30.8,9.92
2/8/2014 5:30,1.4,30.6,9.9
2/8/2014 5:45,1.45,33.2,9.88
2/8/2014 6:00,1.53,38.8,9.86
2/8/2014 6:15,1.62,45.3,9.84
2/8/2014 6:30,1.74,57.1,9.83
2/8/2014 6:45,1.79,66.3,9.82
2/8/2014 7:00,1.77,63,9.82
2/8/2014 7:15,1.77,62.2,9.82
2/8/2014 7:30,1.8,68.6,9.83
2/8/2014 7:45,1.85,74.3,9.83
2/8/2014 8:00,1.89,79.1,9.85
2/8/2014 8:15,1.9,80.4,9.86
2/8/2014 8:30,1.9,79.8,9.88
2/8/2014 8:45,1.94,83.7,9.9
2/8/2014 9:00,1.99,88.7,9.93
2/8/2014 9:15,2.05,95.1,9.95
2/8/2014 9:30,2.04,93.4,9.97
2/8/2014 9:45,1.99,89.2,9.99
2/8/2014 10:00,2.04,93.5,10.02
2/8/2014 10:15,2.11,101,10.02
2/8/2014 10:30,2.16,107,10.03
2/8/2014 10:45,2.16,106,10.05
2/8/2014 11:00,2.26,118,10.05
2/8/2014 11:15,2.43,139,10.05
2/8/2014 11:30,2.44,139,10.05
2/8/2014 11:45,2.79,187,9.98
2/8/2014 12:00,3.28,267,9.86
2/8/2014 12:15,3.57,321,9.79
2/8/2014 12:30,3.68,343,9.71
2/8/2014 12:45,3.77,362,9.68
2/8/2014 13:00,3.77,360,9.7
2/8/2014 13:15,3.75,356,9.72
2/8/2014 13:30,3.69,344,9.77
2/8/2014 13:45,3.68,343,9.79
2/8/2014 14:00,3.68,343,9.82
2/8/2014 14:15,3.68,343,9.84
2/8/2014 14:30,3.66,339,9.87
2/8/2014 14:45,3.68,342,9.9
2/8/2014 15:00,3.71,349,9.94
2/8/2014 15:15,3.74,354,9.98
2/8/2014 15:30,3.72,351,10.02
2/8/2014 15:45,3.65,337,10.06
2/8/2014 16:00,3.55,317,10.1
2/8/2014 16:15,3.38,286,10.13
2/8/2014 16:30,3.2,254,10.14
2/8/2014 16:45,3.07,231,10.15
2/8/2014 17:00,3.02,223,10.18
2/8/2014 17:15,3.04,226,10.21
2/8/2014 17:30,3.07,231,10.25
2/8/2014 17:45,3.12,239,10.29
2/8/2014 18:00,3.21,255,10.35
2/8/2014 18:15,3.31,273,10.42
2/8/2014 18:30,3.36,282,10.5
2/8/2014 18:45,3.36,282,10.55
2/8/2014 19:00,3.33,277,10.6
2/8/2014 19:15,3.27,266,10.64
2/8/2014 19:30,3.17,249,10.67
2/8/2014 19:45,3.08,234,10.69
2/8/2014 20:00,3.01,223,10.7
2/8/2014 20:15,2.97,215,10.71
2/8/2014 20:30,2.94,210,10.72
2/8/2014 20:45,2.91,206,10.73
2/8/2014 21:00,2.89,202,10.74
2/8/2014 21:15,2.85,197,10.76
2/8/2014 21:30,2.83,193,10.77
2/8/2014 21:45,2.82,192,10.8
2/8/2014 22:00,2.83,194,10.83
2/8/2014 22:15,2.86,198,10.86
2/8/2014 22:30,2.94,210,10.91
2/8/2014 22:45,3.07,232,10.95
2/8/2014 23:00,3.22,258,11
2/8/2014 23:15,3.38,285,11.05
2/8/2014 23:30,3.52,312,11.11
2/8/2014 23:45,3.59,324,11.13
2/9/2014 0:00,3.59,325,11.13
2/9/2014 0:15,3.61,329,11.16
2/9/2014 0:30,3.68,343,11.22
2/9/2014 0:45,3.71,348,11.26
2/9/2014 1:00,3.69,344,11.31
2/9/2014 1:15,3.63,333,11.34
2/9/2014 1:30,3.59,324,11.35
2/9/2014 1:45,3.52,312,11.35
2/9/2014 2:00,3.47,302,11.35
2/9/2014 2:15,3.42,292,11.36
2/9/2014 2:30,3.37,284,11.37
2/9/2014 2:45,3.31,273,11.37
2/9/2014 3:00,3.21,256,11.37
2/9/2014 3:15,3.11,239,11.37
2/9/2014 3:30,3.01,221,11.37
2/9/2014 3:45,2.9,204,11.37
2/9/2014 4:00,2.82,192,11.36
2/9/2014 4:15,2.75,182,11.36
2/9/2014 4:30,2.7,174,11.36
2/9/2014 4:45,2.65,168,11.36
2/9/2014 5:00,2.61,161,11.36
2/9/2014 5:15,2.56,155,11.36
2/9/2014 5:30,2.52,150,11.35
2/9/2014 5:45,2.48,144,11.34
2/9/2014 6:00,2.43,138,11.34
2/9/2014 6:15,2.41,136,11.33
2/9/2014 6:30,2.44,140,11.33
2/9/2014 6:45,2.51,148,11.33
2/9/2014 7:00,2.6,161,11.33
2/9/2014 7:15,2.75,181,11.34
2/9/2014 7:30,2.98,217,11.35
2/9/2014 7:45,3.19,252,11.38
2/9/2014 8:00,3.42,293,11.41
2/9/2014 8:15,3.62,330,11.47
2/9/2014 8:30,3.67,341,11.51
2/9/2014 8:45,3.64,335,11.54
2/9/2014 9:00,3.56,319,11.56
2/9/2014 9:15,3.45,298,11.57
2/9/2014 9:30,3.31,273,11.57
2/9/2014 9:45,3.18,250,11.57
2/9/2014 10:00,3.07,231,11.57
2/9/2014 10:15,2.97,216,11.57
2/9/2014 10:30,2.93,209,11.57
2/9/2014 10:45,2.89,203,11.57
2/9/2014 11:00,2.87,200,11.57
2/9/2014 11:15,2.88,201,11.58
2/9/2014 11:30,2.91,205,11.58
2/9/2014 11:45,2.97,215,11.59
2/9/2014 12:00,3.09,235,11.61
2/9/2014 12:15,3.24,260,11.64
2/9/2014 12:30,3.41,291,11.68
2/9/2014 12:45,3.69,344,11.74
2/9/2014 13:00,3.98,406,11.81
2/9/2014 13:15,4.14,442,11.86
2/9/2014 13:30,4.26,470,12.23
2/9/2014 13:45,4.32,484,12.45
2/9/2014 14:00,4.23,461,12.51
2/9/2014 14:15,4.16,445,12.47
2/9/2014 14:30,4.06,424,12.43
2/9/2014 14:45,3.96,400,12.22
2/9/2014 15:00,3.87,381,12.17
2/9/2014 15:15,3.82,371,12.15
2/9/2014 15:30,3.74,354,12.16
2/9/2014 15:45,3.61,328,12.18
2/9/2014 16:00,3.47,302,12.21
2/9/2014 16:15,3.34,278,12.27
2/9/2014 16:30,3.21,255,12.29
2/9/2014 16:45,3.08,233,12.31
2/9/2014 17:00,2.98,217,12.3
2/9/2014 17:15,2.91,205,12.29
2/9/2014 17:30,2.82,192,12.3
2/9/2014 17:45,2.79,187,12.31
2/9/2014 18:00,2.76,182,12.31
2/9/2014 18:15,2.71,175,12.31
2/9/2014 18:30,2.64,166,12.31
2/9/2014 18:45,2.57,157,12.29
2/9/2014 19:00,2.53,151,12.27
2/9/2014 19:15,2.51,148,12.26
2/9/2014 19:30,2.52,149,12.26
2/9/2014 19:45,2.54,152,12.27
2/9/2014 20:00,2.58,158,12.28
2/9/2014 20:15,2.62,164,12.29
2/9/2014 20:30,2.64,166,12.31
2/9/2014 20:45,2.63,165,12.32
2/9/2014 21:00,2.6,161,12.33
2/9/2014 21:15,2.56,156,12.33
2/9/2014 21:30,2.52,150,12.32
2/9/2014 21:45,2.48,145,12.32
2/9/2014 22:00,2.43,139,12.31
2/9/2014 22:15,2.4,135,12.31
2/9/2014 22:30,2.38,132,12.31
2/9/2014 22:45,2.37,131,12.31
2/9/2014 23:00,2.35,129,12.31
2/9/2014 23:15,2.31,123,12.31
2/9/2014 23:30,2.29,121,12.31
2/9/2014 23:45,2.3,123,12.3
2/10/2014 0:00,2.28,120,12.31
2/10/2014 0:15,2.25,116,12.31
2/10/2014 0:30,2.21,112,12.31
2/10/2014 0:45,2.17,108,12.3
2/10/2014 1:00,2.14,104,12.3
2/10/2014 1:15,2.11,101,12.29
2/10/2014 1:30,2.08,97.5,12.28
2/10/2014 1:45,2.05,94.6,12.27
2/10/2014 2:00,2.02,92.1,12.27
2/10/2014 2:15,2,89.8,12.26
2/10/2014 2:30,1.97,86.9,12.26
2/10/2014 2:45,1.94,84.2,12.26
2/10/2014 3:00,1.93,82.6,12.25
2/10/2014 3:15,1.9,80.6,12.25
2/10/2014 3:30,1.88,78.1,12.24
2/10/2014 3:45,1.87,76.7,12.24
2/10/2014 4:00,1.87,75.8,12.23
2/10/2014 4:15,1.85,74.1,12.22
2/10/2014 4:30,1.84,72.5,12.22
2/10/2014 4:45,1.82,70.9,12.21
2/10/2014 5:00,1.8,69.1,12.2
2/10/2014 5:15,1.78,65.5,12.19
2/10/2014 5:30,1.77,62.2,12.19
2/10/2014 5:45,1.75,57.8,12.18
2/10/2014 6:00,1.73,56,12.17
2/10/2014 6:15,1.72,54.5,12.16
2/10/2014 6:30,1.7,52.7,12.15
2/10/2014 6:45,1.68,50.8,12.14
2/10/2014 7:00,1.66,49.2,12.12
2/10/2014 7:15,1.65,48,12.11
2/10/2014 7:30,1.63,46.6,12.09
2/10/2014 7:45,1.62,45.3,12.08
2/10/2014 8:00,1.6,44.3,12.06
2/10/2014 8:15,1.58,42.4,12.04
2/10/2014 8:30,1.56,41,12.03
2/10/2014 8:45,1.53,38.7,12.01
2/10/2014 9:00,1.43,32.4,11.99
2/10/2014 9:15,1.4,30.3,11.98
2/10/2014 9:30,1.45,33.5,11.96
2/10/2014 9:45,1.45,33.5,11.95
2/10/2014 10:00,1.44,32.8,11.94
2/10/2014 10:15,1.43,32.1,11.93
2/10/2014 10:30,1.42,31.4,11.92
2/10/2014 10:45,1.4,30.6,11.91
2/10/2014 11:00,1.39,29.8,11.9
2/10/2014 11:15,1.38,29.1,11.9
2/10/2014 11:30,1.37,28.4,11.9
2/10/2014 11:45,1.36,27.8,11.9
2/10/2014 12:00,1.35,27.4,11.9
2/10/2014 12:15,1.34,26.8,11.9
2/10/2014 12:30,1.33,26.1,11.91
2/10/2014 12:45,1.32,25.6,11.91
2/10/2014 13:00,1.33,26.1,11.92
2/10/2014 13:15,1.33,26,11.93
2/10/2014 13:30,,,
2/10/2014 13:45,1.29,23.8,11.94
2/10/2014 14:00,1.28,23.3,11.96
2/10/2014 14:15,1.27,22.8,11.97
2/10/2014 14:30,1.26,22.4,11.98
2/10/2014 14:45,1.25,22,11.99
2/10/2014 15:00,1.24,21.6,12
2/10/2014 15:15,1.24,21.2,12.02
2/10/2014 15:30,1.23,20.8,12.03
2/10/2014 15:45,1.22,20.5,12.04
2/10/2014 16:00,1.3,24.4,12.06
2/10/2014 16:15,1.23,20.9,12.08
2/10/2014 16:30,1.13,16.5,12.09
2/10/2014 16:45,1.09,14.6,12.09
2/10/2014 17:00,1.14,16.7,12.1
2/10/2014 17:15,1.16,17.4,12.11
2/10/2014 17:30,1.15,17.1,12.13
2/10/2014 17:45,1.14,16.8,12.14
2/10/2014 18:00,1.14,16.5,12.15
2/10/2014 18:15,1.13,16.2,12.15
2/10/2014 18:30,1.12,15.7,12.16
2/10/2014 18:45,1.11,15.4,12.16
2/10/2014 19:00,1.1,15.1,12.17
2/10/2014 19:15,1.09,14.8,12.17
2/10/2014 19:30,1.09,14.5,12.18
2/10/2014 19:45,1.08,14.2,12.18
2/10/2014 20:00,1.07,13.9,12.19
2/10/2014 20:15,1.06,13.6,12.19
2/10/2014 20:30,1.06,13.3,12.19
2/10/2014 20:45,1.05,13,12.19
2/10/2014 21:00,1.04,12.7,12.19
2/10/2014 21:15,1.03,12.5,12.19
2/10/2014 21:30,1.03,12.2,12.19
2/10/2014 21:45,1.02,12,12.19
2/10/2014 22:00,1.01,11.7,12.19
2/10/2014 22:15,1.01,11.5,12.18
2/10/2014 22:30,1,11.3,12.18
2/10/2014 22:45,1,11.2,12.18
2/10/2014 23:00,1,11.3,12.17
2/10/2014 23:15,1,11.3,12.17
2/10/2014 23:30,1,11.1,12.16
2/10/2014 23:45,0.98,10.7,12.16
2/11/2014 0:00,0.97,10.4,12.15
2/11/2014 0:15,0.96,10,12.14
2/11/2014 0:30,0.95,9.65,12.13
2/11/2014 0:45,0.94,9.31,12.12
2/11/2014 1:00,0.93,8.98,12.11
2/11/2014 1:15,0.92,8.72,12.1
2/11/2014 1:30,0.91,8.51,12.09
2/11/2014 1:45,0.91,8.4,12.08
2/11/2014 2:00,0.9,8.26,12.06
2/11/2014 2:15,0.9,8.12,12.05
2/11/2014 2:30,0.89,7.98,12.04
2/11/2014 2:45,0.89,7.84,12.02
2/11/2014 3:00,0.89,7.74,12.01
2/11/2014 3:15,0.88,7.63,11.99
2/11/2014 3:30,0.88,7.5,11.98
2/11/2014 3:45,0.87,7.39,11.96
2/11/2014 4:00,0.87,7.24,11.94
2/11/2014 4:15,0.86,7.13,11.92
2/11/2014 4:30,0.86,6.98,11.9
2/11/2014 4:45,0.85,6.86,11.88
2/11/2014 5:00,0.85,6.73,11.87
2/11/2014 5:15,0.84,6.61,11.85
2/11/2014 5:30,0.84,6.49,11.83
2/11/2014 5:45,0.83,6.37,11.81
2/11/2014 6:00,0.83,6.28,11.79
2/11/2014 6:15,0.82,6.16,11.77
2/11/2014 6:30,0.82,6.07,11.76
2/11/2014 6:45,0.81,5.96,11.74
2/11/2014 7:00,0.81,5.87,11.72
2/11/2014 7:15,0.81,5.78,11.7
2/11/2014 7:30,0.8,5.67,11.68
2/11/2014 7:45,0.8,5.57,11.66
2/11/2014 8:00,0.79,5.45,11.64
2/11/2014 8:15,0.79,5.35,11.62
2/11/2014 8:30,0.8,5.6,11.6
2/11/2014 8:45,0.82,6.03,11.58
2/11/2014 9:00,0.82,6.12,11.57
2/11/2014 9:15,0.82,6.05,11.55
2/11/2014 9:30,0.81,5.96,11.53
2/11/2014 9:45,0.81,5.89,11.52
2/11/2014 10:00,0.81,5.82,11.5
2/11/2014 10:15,0.8,5.74,11.49
2/11/2014 10:30,0.8,5.69,11.48
2/11/2014 10:45,0.8,5.65,11.47
2/11/2014 11:00,0.8,5.57,11.46
2/11/2014 11:15,0.79,5.47,11.45
2/11/2014 11:30,0.79,5.37,11.45
2/11/2014 11:45,0.78,5.28,11.45
2/11/2014 12:00,0.78,5.16,11.44
2/11/2014 12:15,0.77,5.04,11.44
2/11/2014 12:30,0.77,4.97,11.44
2/11/2014 12:45,0.77,4.88,11.44
2/11/2014 13:00,0.76,4.81,11.45
2/11/2014 13:15,0.76,4.72,11.46
2/11/2014 13:30,0.76,4.66,11.46
2/11/2014 13:45,0.75,4.59,11.47
2/11/2014 14:00,0.75,4.53,11.49
2/11/2014 14:15,0.75,4.48,11.5
2/11/2014 14:30,0.75,4.42,11.51
2/11/2014 14:45,0.74,4.36,11.52
2/11/2014 15:00,0.74,4.31,11.54
2/11/2014 15:15,0.74,4.27,11.55
2/11/2014 15:30,0.74,4.23,11.56
2/11/2014 15:45,0.73,4.17,11.57
2/11/2014 16:00,0.73,4.11,11.58
2/11/2014 16:15,0.73,4.03,11.6
2/11/2014 16:30,0.72,3.91,11.61
2/11/2014 16:45,0.71,3.78,11.62
2/11/2014 17:00,0.71,3.69,11.63
2/11/2014 17:15,0.71,3.63,11.64
2/11/2014 17:30,0.7,3.59,11.64
2/11/2014 17:45,0.7,3.56,11.65
2/11/2014 18:00,0.7,3.52,11.65
2/11/2014 18:15,0.7,3.59,11.65
2/11/2014 18:30,0.71,3.78,11.66
2/11/2014 18:45,0.72,3.86,11.66
2/11/2014 19:00,0.72,3.86,11.65
2/11/2014 19:15,0.72,3.84,11.65
2/11/2014 19:30,0.72,3.8,11.65
2/11/2014 19:45,0.71,3.76,11.64
2/11/2014 20:00,0.71,3.7,11.63
2/11/2014 20:15,0.72,3.97,11.63
2/11/2014 20:30,0.78,5.23,11.62
2/11/2014 20:45,0.81,5.98,11.61
2/11/2014 21:00,0.82,6.12,11.61
2/11/2014 21:15,0.82,6.14,11.6
2/11/2014 21:30,0.82,6.09,11.59
2/11/2014 21:45,0.87,7.37,11.59
2/11/2014 22:00,0.97,10.1,11.58
2/11/2014 22:15,0.93,8.92,11.57
2/11/2014 22:30,0.88,7.66,11.57
2/11/2014 22:45,0.85,6.93,11.57
2/11/2014 23:00,0.84,6.52,11.56
2/11/2014 23:15,0.83,6.26,11.56
2/11/2014 23:30,0.82,6.07,11.56
2/11/2014 23:45,0.81,5.96,11.55
2/12/2014 0:00,0.81,5.85,11.55
2/12/2014 0:15,0.81,5.78,11.54
2/12/2014 0:30,0.8,5.69,11.53
2/12/2014 0:45,0.8,5.62,11.52
2/12/2014 1:00,0.8,5.55,11.51
2/12/2014 1:15,0.79,5.5,11.5
2/12/2014 1:30,0.79,5.45,11.49
2/12/2014 1:45,0.79,5.35,11.48
2/12/2014 2:00,0.79,5.3,11.47
2/12/2014 2:15,0.78,5.25,11.46
2/12/2014 2:30,0.78,5.2,11.45
2/12/2014 2:45,0.78,5.13,11.44
2/12/2014 3:00,0.78,5.09,11.42
2/12/2014 3:15,0.77,5.04,11.41
2/12/2014 3:30,0.77,4.97,11.4
2/12/2014 3:45,0.77,4.92,11.39
2/12/2014 4:00,0.77,4.88,11.38
2/12/2014 4:15,0.77,4.83,11.37
2/12/2014 4:30,0.76,4.79,11.36
2/12/2014 4:45,0.76,4.74,11.35
2/12/2014 5:00,0.76,4.7,11.34
2/12/2014 5:15,0.76,4.68,11.33
2/12/2014 5:30,0.76,4.63,11.32
2/12/2014 5:45,0.75,4.59,11.31
2/12/2014 6:00,0.75,4.57,11.3
2/12/2014 6:15,0.75,4.53,11.28
2/12/2014 6:30,0.75,4.5,11.27
2/12/2014 6:45,0.75,4.48,11.26
2/12/2014 7:00,0.75,4.42,11.25
2/12/2014 7:15,0.75,4.4,11.24
2/12/2014 7:30,0.74,4.36,11.23
2/12/2014 7:45,0.74,4.34,11.21
2/12/2014 8:00,0.74,4.25,11.2
2/12/2014 8:15,0.73,4.17,11.19
2/12/2014 8:30,0.74,4.21,11.18
2/12/2014 8:45,0.74,4.21,11.17
2/12/2014 9:00,0.74,4.19,11.16
2/12/2014 9:15,0.73,4.15,11.15
2/12/2014 9:30,0.73,4.13,11.14
2/12/2014 9:45,0.73,4.05,11.13
2/12/2014 10:00,0.71,3.63,11.13
2/12/2014 10:15,0.68,3.21,11.12
2/12/2014 10:30,0.67,3.03,11.12
2/12/2014 10:45,0.67,2.95,11.11
2/12/2014 11:00,0.66,2.89,11.11
2/12/2014 11:15,0.66,2.84,11.11
2/12/2014 11:30,0.66,2.81,11.11
2/12/2014 11:45,0.66,2.78,11.11
2/12/2014 12:00,0.65,2.75,11.11
2/12/2014 12:15,0.65,2.73,11.12
2/12/2014 12:30,0.65,2.72,11.12
2/12/2014 12:45,0.65,2.69,11.13
2/12/2014 13:00,0.65,2.67,11.14
2/12/2014 13:15,0.65,2.64,11.15
2/12/2014 13:30,0.64,2.62,11.17
2/12/2014 13:45,0.64,2.6,11.18
2/12/2014 14:00,0.64,2.59,11.19
2/12/2014 14:15,0.64,2.57,11.21
2/12/2014 14:30,0.64,2.57,11.22
2/12/2014 14:45,0.64,2.56,11.24
2/12/2014 15:00,0.64,2.53,11.26
2/12/2014 15:15,0.64,2.52,11.27
2/12/2014 15:30,0.64,2.49,11.29
2/12/2014 15:45,0.63,2.46,11.3
2/12/2014 16:00,0.63,2.45,11.32
2/12/2014 16:15,0.63,2.42,11.33
2/12/2014 16:30,0.63,2.39,11.34
2/12/2014 16:45,0.63,2.36,11.36
2/12/2014 17:00,0.63,2.35,11.37
2/12/2014 17:15,0.62,2.34,11.38
2/12/2014 17:30,0.62,2.31,11.39
2/12/2014 17:45,0.62,2.3,11.4
2/12/2014 18:00,0.62,2.27,11.41
2/12/2014 18:15,0.62,2.24,11.42
2/12/2014 18:30,0.62,2.23,11.43
2/12/2014 18:45,0.61,2.21,11.43
2/12/2014 19:00,0.61,2.18,11.43
2/12/2014 19:15,0.61,2.17,11.44
2/12/2014 19:30,0.61,2.14,11.44
2/12/2014 19:45,0.61,2.13,11.44
2/12/2014 20:00,0.61,2.11,11.44
2/12/2014 20:15,0.61,2.09,11.44
2/12/2014 20:30,0.6,2.08,11.43
2/12/2014 20:45,0.6,2.06,11.43
2/12/2014 21:00,0.6,2.03,11.43
2/12/2014 21:15,0.6,2.01,11.42
2/12/2014 21:30,0.6,1.98,11.42
2/12/2014 21:45,0.59,1.96,11.41
2/12/2014 22:00,0.59,1.94,11.41
2/12/2014 22:15,0.59,1.91,11.4
2/12/2014 22:30,0.59,1.89,11.4
2/12/2014 22:45,0.59,1.88,11.39
2/12/2014 23:00,0.59,1.86,11.38
2/12/2014 23:15,0.58,1.85,11.38
2/12/2014 23:30,0.58,1.82,11.37
2/12/2014 23:45,0.58,1.81,11.37
2/13/2014 0:00,0.58,1.8,11.36
2/13/2014 0:15,0.58,1.78,11.36
2/13/2014 0:30,0.58,1.76,11.35
2/13/2014 0:45,0.58,1.75,11.35
2/13/2014 1:00,0.57,1.73,11.34
2/13/2014 1:15,0.57,1.71,11.34
2/13/2014 1:30,0.57,1.7,11.33
2/13/2014 1:45,0.57,1.68,11.33
2/13/2014 2:00,0.57,1.67,11.32
2/13/2014 2:15,0.57,1.66,11.32
2/13/2014 2:30,0.57,1.64,11.31
2/13/2014 2:45,0.56,1.63,11.31
2/13/2014 3:00,0.56,1.62,11.3
2/13/2014 3:15,0.56,1.6,11.3
2/13/2014 3:30,0.56,1.59,11.29
2/13/2014 3:45,0.56,1.58,11.29
2/13/2014 4:00,0.56,1.57,11.28
2/13/2014 4:15,0.56,1.56,11.28
2/13/2014 4:30,0.56,1.54,11.28
2/13/2014 4:45,0.55,1.53,11.27
2/13/2014 5:00,0.55,1.51,11.27
2/13/2014 5:15,0.55,1.5,11.26
2/13/2014 5:30,0.55,1.49,11.26
2/13/2014 5:45,0.55,1.48,11.26
2/13/2014 6:00,0.55,1.46,11.25
2/13/2014 6:15,0.55,1.45,11.25
2/13/2014 6:30,0.55,1.44,11.24
2/13/2014 6:45,0.54,1.42,11.23
2/13/2014 7:00,0.54,1.4,11.23
2/13/2014 7:15,0.54,1.4,11.22
2/13/2014 7:30,0.54,1.38,11.22
2/13/2014 7:45,0.54,1.37,11.21
2/13/2014 8:00,0.54,1.35,11.21
2/13/2014 8:15,0.53,1.33,11.2
2/13/2014 8:30,0.53,1.32,11.2
2/13/2014 8:45,0.53,1.31,11.2
2/13/2014 9:00,0.53,1.3,11.2
2/13/2014 9:15,0.53,1.28,11.19
2/13/2014 9:30,0.53,1.27,11.19
2/13/2014 9:45,0.52,1.25,11.2
2/13/2014 10:00,0.52,1.24,11.2
2/13/2014 10:15,0.52,1.23,11.2
2/13/2014 10:30,0.52,1.22,11.2
2/13/2014 10:45,0.52,1.21,11.21
2/13/2014 11:00,0.52,1.21,11.21
2/13/2014 11:15,0.52,1.19,11.22
2/13/2014 11:30,0.52,1.19,11.23
2/13/2014 11:45,0.52,1.19,11.24
2/13/2014 12:00,0.52,1.19,11.26
2/13/2014 12:15,0.52,1.19,11.27
2/13/2014 12:30,0.52,1.19,11.29
2/13/2014 12:45,0.52,1.19,11.31
2/13/2014 13:00,0.52,1.19,11.33
2/13/2014 13:15,0.52,1.24,11.35
2/13/2014 13:30,0.53,1.34,11.38
2/13/2014 13:45,0.55,1.44,11.4
2/13/2014 14:00,0.55,1.51,11.43
2/13/2014 14:15,0.56,1.55,11.46
2/13/2014 14:30,0.56,1.55,11.49
2/13/2014 14:45,0.56,1.55,11.52
2/13/2014 15:00,0.56,1.55,11.54
2/13/2014 15:15,0.56,1.55,11.57
2/13/2014 15:30,0.56,1.54,11.6
2/13/2014 15:45,0.56,1.54,11.62
2/13/2014 16:00,0.55,1.53,11.65
2/13/2014 16:15,0.55,1.53,11.68
2/13/2014 16:30,0.56,1.57,11.7
2/13/2014 16:45,0.56,1.6,11.72
2/13/2014 17:00,0.56,1.62,11.75
2/13/2014 17:15,0.56,1.61,11.77
2/13/2014 17:30,0.56,1.61,11.79
2/13/2014 17:45,0.56,1.6,11.8
2/13/2014 18:00,0.56,1.62,11.82
2/13/2014 18:15,0.57,1.65,11.83
2/13/2014 18:30,0.57,1.66,11.83
2/13/2014 18:45,0.57,1.65,11.84
2/13/2014 19:00,0.57,1.64,11.85
2/13/2014 19:15,0.56,1.63,11.85
2/13/2014 19:30,0.56,1.62,11.86
2/13/2014 19:45,0.56,1.61,11.86
2/13/2014 20:00,0.56,1.6,11.86
2/13/2014 20:15,0.56,1.59,11.86
2/13/2014 20:30,0.56,1.58,11.86
2/13/2014 20:45,0.56,1.57,11.86
2/13/2014 21:00,0.56,1.56,11.86
2/13/2014 21:15,0.56,1.55,11.86
2/13/2014 21:30,0.56,1.54,11.86
2/13/2014 21:45,0.56,1.54,11.86
2/13/2014 22:00,0.55,1.53,11.86
2/13/2014 22:15,0.55,1.52,11.85
2/13/2014 22:30,0.55,1.5,11.85
2/13/2014 22:45,0.55,1.49,11.84
2/13/2014 23:00,0.55,1.48,11.84
2/13/2014 23:15,0.55,1.47,11.83
2/13/2014 23:30,0.55,1.46,11.83
2/13/2014 23:45,0.55,1.45,11.82
2/14/2014 0:00,0.55,1.44,11.81
2/14/2014 0:15,0.54,1.43,11.81
2/14/2014 0:30,0.54,1.41,11.8
2/14/2014 0:45,0.54,1.41,11.79
2/14/2014 1:00,0.54,1.4,11.78
2/14/2014 1:15,0.54,1.39,11.77
2/14/2014 1:30,0.54,1.38,11.77
2/14/2014 1:45,0.54,1.36,11.76
2/14/2014 2:00,0.54,1.37,11.75
2/14/2014 2:15,0.54,1.35,11.74
2/14/2014 2:30,0.53,1.34,11.74
2/14/2014 2:45,0.53,1.33,11.73
2/14/2014 3:00,0.53,1.32,11.73
2/14/2014 3:15,0.53,1.32,11.72
2/14/2014 3:30,0.53,1.31,11.72
2/14/2014 3:45,0.53,1.31,11.71
2/14/2014 4:00,0.53,1.3,11.71
2/14/2014 4:15,0.53,1.29,11.71
2/14/2014 4:30,0.53,1.29,11.71
2/14/2014 4:45,0.53,1.28,11.7
2/14/2014 5:00,0.53,1.27,11.7
2/14/2014 5:15,0.53,1.27,11.7
2/14/2014 5:30,0.53,1.26,11.7
2/14/2014 5:45,0.52,1.24,11.7
2/14/2014 6:00,0.52,1.24,11.71
2/14/2014 6:15,0.52,1.24,11.71
2/14/2014 6:30,0.52,1.23,11.71
2/14/2014 6:45,0.52,1.22,11.71
2/14/2014 7:00,0.52,1.21,11.71
2/14/2014 7:15,0.52,1.21,11.71
2/14/2014 7:30,0.52,1.2,11.71
2/14/2014 7:45,0.52,1.19,11.71
2/14/2014 8:00,0.52,1.18,11.71
2/14/2014 8:15,0.51,1.14,11.72
2/14/2014 8:30,0.5,1.08,11.72
2/14/2014 8:45,0.5,1.05,11.72
2/14/2014 9:00,0.5,1.03,11.72
2/14/2014 9:15,0.5,1.02,11.73
2/14/2014 9:30,0.49,1.01,11.73
2/14/2014 9:45,0.49,1.01,11.74
2/14/2014 10:00,0.49,1,11.75
2/14/2014 10:15,0.49,0.99,11.76
2/14/2014 10:30,0.49,0.99,11.77
2/14/2014 10:45,0.5,1.09,11.78
2/14/2014 11:00,0.55,1.53,11.8
2/14/2014 11:15,0.58,1.79,11.82
2/14/2014 11:30,0.58,1.82,11.84
2/14/2014 11:45,0.58,1.83,11.87
2/14/2014 12:00,0.58,1.82,11.89
2/14/2014 12:15,0.58,1.83,11.92
2/14/2014 12:30,0.58,1.82,11.95
2/14/2014 12:45,0.58,1.81,11.97
2/14/2014 13:00,0.58,1.82,12
2/14/2014 13:15,0.58,1.81,12.03
2/14/2014 13:30,0.58,1.81,12.06
2/14/2014 13:45,0.58,1.8,12.08
2/14/2014 14:00,0.58,1.81,12.11
2/14/2014 14:15,0.58,1.8,12.13
2/14/2014 14:30,0.58,1.8,12.15
2/14/2014 14:45,0.58,1.79,12.18
2/14/2014 15:00,0.58,1.79,12.2
2/14/2014 15:15,0.58,1.79,12.22
2/14/2014 15:30,0.58,1.78,12.24
2/14/2014 15:45,0.58,1.77,12.26
2/14/2014 16:00,0.58,1.77,12.28
2/14/2014 16:15,0.58,1.77,12.3
2/14/2014 16:30,0.58,1.76,12.32
2/14/2014 16:45,0.58,1.77,12.33
2/14/2014 17:00,0.58,1.76,12.34
2/14/2014 17:15,0.58,1.75,12.35
2/14/2014 17:30,0.58,1.75,12.36
2/14/2014 17:45,0.57,1.73,12.37
2/14/2014 18:00,0.57,1.72,12.38
2/14/2014 18:15,0.57,1.71,12.38
2/14/2014 18:30,0.57,1.7,12.39
2/14/2014 18:45,0.57,1.7,12.39
2/14/2014 19:00,0.57,1.69,12.39
2/14/2014 19:15,0.57,1.68,12.39
2/14/2014 19:30,0.57,1.67,12.39
2/14/2014 19:45,0.57,1.67,12.39
2/14/2014 20:00,0.57,1.66,12.38
2/14/2014 20:15,0.57,1.65,12.38
2/14/2014 20:30,0.57,1.64,12.37
2/14/2014 20:45,0.56,1.63,12.37
2/14/2014 21:00,0.56,1.63,12.36
2/14/2014 21:15,0.56,1.62,12.35
2/14/2014 21:30,0.56,1.61,12.35
2/14/2014 21:45,0.56,1.6,12.34
2/14/2014 22:00,0.56,1.6,12.33
2/14/2014 22:15,0.56,1.59,12.33
2/14/2014 22:30,0.56,1.59,12.32
2/14/2014 22:45,0.56,1.58,12.31
2/14/2014 23:00,0.56,1.57,12.3
2/14/2014 23:15,0.56,1.56,12.29
2/14/2014 23:30,0.56,1.55,12.28
2/14/2014 23:45,0.56,1.54,12.27
2/15/2014 0:00,0.55,1.52,12.26
2/15/2014 0:15,0.55,1.51,12.25
2/15/2014 0:30,0.55,1.5,12.24
2/15/2014 0:45,0.55,1.49,12.23
2/15/2014 1:00,0.55,1.48,12.22
2/15/2014 1:15,0.55,1.49,12.21
2/15/2014 1:30,0.55,1.49,12.2
2/15/2014 1:45,0.55,1.49,12.19
2/15/2014 2:00,0.55,1.5,12.19
2/15/2014 2:15,0.55,1.49,12.18
2/15/2014 2:30,0.55,1.49,12.17
2/15/2014 2:45,0.55,1.49,12.17
2/15/2014 3:00,0.55,1.5,12.16